Regional Weather Roundup
Issued by NWS

Home | Current Version | Previous Version | Graphics & Text | Print | Product List | Glossary On
Versions: 1 2 3 4 5 6 7 8 9 10 11 12 13 14 15 16 17 18 19 20 21 22 23 24 25 26 27 28 29 30 31 32 33 34 35 36 37 38 39 40 41 42 43 44 45 46 47 48 49 50
000
ASUS45 KCYS 291510
RWRWY

WYOMING REGIONAL WEATHER ROUNDUP
NATIONAL WEATHER SERVICE CHEYENNE WY
900 AM MDT FRI MAY 29 2015

NOTE:  "FAIR" INDICATES FEW OR NO CLOUDS BELOW 12,000 FEET
WITH NO SIGNIFICANT WEATHER AND/OR OBSTRUCTIONS TO VISIBILITY.

WYZ001-291600-
YELLOWSTONE NATIONAL PARK

CITY           SKY/WX    TMP DP  RH WIND       PRES   REMARKS
LK YELLOWSTONE   N/A     40  37  89 SE6       30.36R
W YELLOWSTONE  NOT AVBL

$$
WYZ002>013-054>058-071-098>099-291600-
NORTHERN WYOMING

CITY           SKY/WX    TMP DP  RH WIND       PRES   REMARKS
JACKSON        CLOUDY    43  43 100 CALM      30.32R
CODY           CLOUDY    46  45  93 NW5       30.31R
GREYBULL       FAIR      56  46  69 NW12      30.24S
WORLAND        CLOUDY    52  46  80 N7        30.26R
SHERIDAN       CLOUDY    44  42  93 NE10      30.32R FOG
BUFFALO        LGT RAIN  43  42  97 NE16G24   30.30R VSB<1/4
GILLETTE       CLOUDY    44  43  96 NW15      30.27R FOG
HULETT         LGT RAIN  43  41  93 N8        30.28R VSB<1/4
NEWCASTLE      RAIN      46  45  93 NW12      30.21R

$$
WYZ014>020-022>026-101>103-291600-
CENTRAL WYOMING

CITY           SKY/WX    TMP DP  RH WIND       PRES   REMARKS
BIG PINEY      CLOUDY    44  38  79 W5        30.33R
PINEDALE       PTSUNNY   46  37  71 SE6       30.34R
DUBOIS         FAIR      43  36  75 CALM      30.31S
LANDER         CLOUDY    51  43  74 CALM      30.28R
RIVERTON       CLOUDY    51  45  79 N10       30.30R
CASPER         RAIN      45  43  93 NW7       30.28R FOG
DOUGLAS        LGT RAIN  49  47  93 N18G24    30.24R

$$
WYZ021-027>030-104>119-291600-
SOUTHERN WYOMING

CITY           SKY/WX    TMP DP  RH WIND       PRES   REMARKS
EVANSTON       FAIR      49  40  71 NE3       30.31R
KEMMERER       FAIR      48  37  66 E7        30.33R
FORT BRIDGER   SUNNY     48  41  76 SE3       30.34S
ROCK SPRINGS   FAIR      49  41  74 E8        30.32R
DIXON          CLOUDY    47  43  87 W3        30.32S
RAWLINS        CLOUDY    46  41  82 N5        30.31R
SARATOGA       CLOUDY    43  39  87 CALM      30.32R
LARAMIE        CLOUDY    48  41  76 N16       30.27R
CHEYENNE       CLOUDY    52  41  66 NW12G23   30.22R
TORRINGTON     LGT RAIN  53  52  96 W7        30.17R
PINE BLUFFS    CLOUDY    54  46  76 NW17G23   30.20S

$$


USA.gov is the U.S. government's official web portal to all federal, state and local government web resources and services.